Regional Weather Roundup
Issued by NWS

Home | Current Version | Previous Version | Graphics & Text | Print | Product List | Glossary On
Versions: 1 2 3 4 5 6 7 8 9 10 11 12 13 14 15 16 17 18 19 20 21 22 23 24 25 26 27 28 29 30 31 32 33 34 35 36 37 38 39 40 41 42 43 44 45 46 47 48 49 50
000
ASUS45 KBOU 281107
RWRCO

WEATHER ROUNDUP FOR COLORADO
NATIONAL WEATHER SERVICE DENVER/BOULDER CO
500 AM MDT TUE MAR 28 2017

NOTE: "FAIR" INDICATES FEW OR NO CLOUDS BELOW 12000 FEET WITH NO
SIGNIFICANT WEATHER AND/OR OBSTRUCTIONS TO VISIBILITY.

COZ001>005-013-030-031-281200-
...NORTHWEST COLORADO...

CITY           SKY/WX    TMP DP  RH WIND       PRES   REMARKS
CRAIG          LGT RAIN  37  33  85 W6        29.86S
HAYDEN         CLOUDY    36  30  80 W7        29.85S
MEEKER         LGT RAIN  37  35  92 N3        29.86R
MOUNT WERNER   NOT AVBL
STEAMBOAT SPGS CLOUDY    34  32  93 CALM      29.85F
WALDEN         NOT AVBL
$$

COZ006>008-011-281200-
...WEST CENTRAL VALLEYS...

CITY           SKY/WX    TMP DP  RH WIND       PRES   REMARKS
GRAND JUNCTION CLOUDY    42  42 100 CALM      29.84S
MONTROSE       LGT RAIN  38  37  97 CALM      29.87F
EAGLE          LGT SNOW  32  31  96 E3        29.88F FOG
RIFLE          CLOUDY    43  39  86 CALM      29.85S
DELTA          DRIZZLE   43  42  96 CALM      29.85S
NUCLA          CLOUDY    37  36  93 CALM      29.88S
$$

COZ017>023-064>068-281200-
...SOUTHWEST COLORADO...

CITY           SKY/WX    TMP DP  RH WIND       PRES   REMARKS
DURANGO        MOCLDY    33  33 100 SW3       29.86R
CORTEZ         LGT RAIN  38  38 100 CALM      29.86S
PAGOSA SPRINGS FAIR      35  35  99 CALM      29.87F
TELLURIDE      FOG       31  31 100 CALM      29.88S VSB 1/4
WOLF CREEK PAS HVY SNOW  21  21 100 SW17G33   29.93R VSB<1/4 WCI   7
$$

COZ009-010-012-014-032>034-037-058>063-281200-
...CENTRAL COLORADO...

CITY           SKY/WX    TMP DP  RH WIND       PRES   REMARKS
ASPEN          LGT SNOW  32  32 100 CALM      29.84F FOG
BUENA VISTA    MOCLDY    37  31  79 CALM      29.84F
COPPER MTN     LGT SNOW  28  21  74 MISG      29.92S
BERTHOUD PASS  HAZE      19   9  63 SE7       29.93S VSB<1/4 WCI  10
COTTONWOOD PAS LGT SNOW  32  32 100 CALM      29.87F
GUNNISON       LGT RAIN  35  34  96 SW3       29.85S
KREMMLING      LGT RAIN  37  36  93 CALM      29.86F
LEADVILLE      LGT SNOW  29  27  92 S8        29.86S FOG     WCI  21
MONARCH PASS   FOG       23  23 100 SW18      30.01S VSB 1/2 WCI   9
SALIDA         FAIR      39  34  82 S3        29.90F
SUNLIGHT       CLOUDY    25  23  93 CALM      29.93S
WILKERSON PASS LGT SNOW  28  27  93 SW5       29.93S WCI  23
$$

COZ069>075-281200-
...SAN LUIS VALLEY/SANGRE DE CRISTO MOUNTAINS...

CITY           SKY/WX    TMP DP  RH WIND       PRES   REMARKS
ALAMOSA        FAIR      30  29  96 VRB5      29.83F WCI  25
LA VETA PASS   NOT AVBL
SAGUACHE       CLOUDY    36  32  87 S5        29.86S
$$

COZ035-036-038>040-281200-
...NORTHERN COLORADO FRONT RANGE...

CITY           SKY/WX    TMP DP  RH WIND       PRES   REMARKS
DENVER INTL AP CLOUDY    45  41  86 N5        29.81S
DMNS CITY PARK   N/A     45  40  81 N5G10     29.82S
AURORA         CLOUDY    43  43  99 N5        29.82S
FRONT RANGE AP CLOUDY    45  43  93 N7        29.82S
ERIE MUNI ARPT CLOUDY    45  42  89 CALM      29.81F
BOULDER MUN AP CLOUDY    45  43  93 CALM      29.82S
CENTENNIAL     CLOUDY    44  40  85 N6        29.81S
BROOMFIELD     FAIR      43  41  93 N8        29.82S
FORT COLLINS   FAIR      46  40  79 N14       29.83R
LONGMONT       LGT RAIN  48  42  81 N5        29.83S
$$

COZ041-046-047-076>085-087-088-281200-
...PIKES PEAK/PALMER DIVIDE AND SOUTHERN FOOTHILLS...

CITY           SKY/WX    TMP DP  RH WIND       PRES   REMARKS
COLO. SPRINGS  FAIR      38  33  82 E14       29.81F
A. F. ACADEMY  CLOUDY    41  35  81 E6        29.81S
SCHRIEVER AFB  FAIR      37  33  89 NE8       29.82S
ELLICOTT       NOT AVBL
FALCON         FAIR      34  32  92 SE5       29.84S WCI  30
FORT CARSON    FAIR      37  34  89 N3        29.80R
LIMON          MOCLDY    38  38 100 SE9       29.83S
MONUMENT HILL  FAIR      32  32 100 W9        29.84R WCI  24
TRINIDAD       FAIR      43  37  79 NW3       29.79S
$$

COZ042>045-048>051-090-091-281200-
...NORTHEAST COLORADO...

CITY           SKY/WX    TMP DP  RH WIND       PRES   REMARKS
GREELEY ARPT   CLOUDY    42  40  92 N7        29.82R
AKRON          CLOUDY    44  38  79 SE13      29.83S
BURLINGTON     CLOUDY    46  42  86 SE25      29.85F
WRAY           NOT AVBL
STERLING       CLOUDY    46  41  81 SE7       29.84S
HOLYOKE        LGT RAIN  46  43  87 E8        29.89F
FORT MORGAN    FAIR      45  36  70 SE10      29.83S
$$

COZ086-089-092>099-281200-
...SOUTHEAST COLORADO...

CITY           SKY/WX    TMP DP  RH WIND       PRES   REMARKS
PUEBLO         FAIR      42  37  82 N8        29.77R
LA JUNTA       FAIR      47  37  68 E8        29.76F
LAMAR          MOCLDY    48  40  73 SE14      29.82F
SPRINGFIELD      N/A     43  40  89 SE12      29.84F
$$



USA.gov is the U.S. government's official web portal to all federal, state and local government web resources and services.